TimeCDT,TemperatureF,Dew PointF,Humidity,Sea Level PressureIn,VisibilityMPH,Wind Direction,Wind SpeedMPH,Gust SpeedMPH,PrecipitationIn,Events,Conditions,WindDirDegrees,DateUTC
12:15 AM,52.3,34.5,51,30.04,10.0,North,3.5,-,N/A,,Unknown,360,2013-03-20 05:15:00
12:35 AM,52.7,34.3,50,30.04,10.0,North,3.5,-,N/A,,Unknown,10,2013-03-20 05:35:00
12:55 AM,52.7,35.4,52,30.03,10.0,Calm,Calm,-,N/A,,Unknown,0,2013-03-20 05:55:00
1:15 AM,53.2,35.8,52,30.04,10.0,North,4.6,-,N/A,,Unknown,360,2013-03-20 06:15:00
1:35 AM,53.8,34.9,49,30.04,10.0,North,5.8,-,N/A,,Unknown,10,2013-03-20 06:35:00
1:55 AM,54.5,32.2,43,30.05,10.0,Calm,Calm,-,N/A,,Unknown,0,2013-03-20 06:55:00
2:15 AM,54.5,30.9,41,30.05,10.0,NNE,3.5,-,N/A,,Unknown,30,2013-03-20 07:15:00
2:35 AM,55.0,28.4,36,30.04,10.0,NNE,3.5,-,N/A,,Unknown,20,2013-03-20 07:35:00
2:55 AM,53.8,30.4,41,30.03,10.0,NNE,4.6,-,N/A,,Unknown,30,2013-03-20 07:55:00
3:15 AM,52.3,32.5,47,30.03,10.0,North,4.6,-,N/A,,Unknown,10,2013-03-20 08:15:00
3:35 AM,52.3,31.6,45,30.03,10.0,North,5.8,-,N/A,,Unknown,10,2013-03-20 08:35:00
3:55 AM,53.1,28.0,38,30.04,10.0,North,5.8,-,N/A,,Unknown,10,2013-03-20 08:55:00
4:15 AM,52.5,28.2,39,30.05,10.0,NNE,6.9,-,N/A,,Unknown,20,2013-03-20 09:15:00
4:35 AM,53.8,25.7,34,30.05,10.0,NNE,6.9,-,N/A,,Unknown,20,2013-03-20 09:35:00
4:55 AM,54.0,24.4,32,30.05,10.0,NNE,9.2,-,N/A,,Unknown,20,2013-03-20 09:55:00
5:15 AM,54.3,22.6,29,30.06,10.0,NNE,9.2,-,N/A,,Unknown,20,2013-03-20 10:15:00
5:35 AM,54.5,21.6,28,30.08,10.0,NNE,8.1,-,N/A,,Unknown,20,2013-03-20 10:35:00
5:55 AM,54.3,20.3,26,30.10,10.0,NNE,6.9,-,N/A,,Unknown,20,2013-03-20 10:55:00
6:15 AM,53.8,20.8,28,30.11,10.0,NNE,8.1,-,N/A,,Unknown,20,2013-03-20 11:15:00
6:35 AM,54.0,20.5,27,30.13,10.0,North,6.9,-,N/A,,Unknown,10,2013-03-20 11:35:00
6:55 AM,53.6,21.4,28,30.13,10.0,NNE,9.2,-,N/A,,Unknown,20,2013-03-20 11:55:00
7:15 AM,53.8,20.3,27,30.14,10.0,NNE,8.1,-,N/A,,Unknown,20,2013-03-20 12:15:00
7:35 AM,53.8,20.1,27,30.13,10.0,NNE,11.5,-,N/A,,Unknown,30,2013-03-20 12:35:00
7:55 AM,54.0,19.2,26,30.13,10.0,NNE,8.1,-,N/A,,Unknown,30,2013-03-20 12:55:00
8:15 AM,54.1,18.5,25,30.13,10.0,NE,6.9,-,N/A,,Unknown,50,2013-03-20 13:15:00
8:35 AM,54.1,19.6,26,30.14,10.0,NNE,5.8,-,N/A,,Unknown,20,2013-03-20 13:35:00
8:55 AM,54.1,20.3,27,30.14,10.0,NE,8.1,-,N/A,,Unknown,40,2013-03-20 13:55:00
9:15 AM,52.9,25.7,35,30.14,10.0,ENE,3.5,-,N/A,Rain,Light Rain,60,2013-03-20 14:15:00
9:35 AM,53.2,26.2,35,30.15,10.0,Calm,Calm,-,N/A,Rain,Light Rain,0,2013-03-20 14:35:00
10:15 AM,53.6,33.1,46,30.15,10.0,Calm,Calm,-,N/A,Rain,Light Rain,0,2013-03-20 15:15:00
10:35 AM,54.5,30.6,40,30.17,10.0,North,9.2,-,N/A,,Unknown,10,2013-03-20 15:35:00
10:55 AM,54.5,26.6,34,30.18,10.0,North,6.9,-,N/A,,Unknown,10,2013-03-20 15:55:00
11:15 AM,55.4,26.2,33,30.18,10.0,North,5.8,-,N/A,,Unknown,10,2013-03-20 16:15:00
11:35 AM,56.3,24.4,29,30.17,10.0,North,4.6,-,N/A,,Unknown,10,2013-03-20 16:35:00
11:55 AM,57.2,22.5,26,30.16,10.0,Calm,Calm,-,N/A,,Unknown,0,2013-03-20 16:55:00
12:15 PM,57.4,24.4,28,30.16,10.0,NNW,5.8,-,N/A,,Unknown,340,2013-03-20 17:15:00
12:35 PM,58.3,22.3,25,30.17,10.0,North,8.1,-,N/A,,Unknown,350,2013-03-20 17:35:00
12:55 PM,59.4,20.5,22,30.17,10.0,North,10.4,-,N/A,,Unknown,360,2013-03-20 17:55:00
1:15 PM,60.6,19.8,21,30.15,10.0,NNE,8.1,-,N/A,,Unknown,30,2013-03-20 18:15:00
1:35 PM,63.1,15.3,16,30.14,10.0,NNE,6.9,-,N/A,,Unknown,30,2013-03-20 18:35:00
1:55 PM,64.2,7.3,11,30.13,10.0,NNE,11.5,-,N/A,,Unknown,30,2013-03-20 18:55:00
2:15 PM,65.3,1.0,8,30.11,10.0,NNE,11.5,17.3,N/A,,Unknown,20,2013-03-20 19:15:00
2:35 PM,66.4,-17.9,4,30.10,10.0,North,12.7,25.3,N/A,Thunderstorm,Unknown,350,2013-03-20 19:35:00
2:55 PM,-9999,-9999,N/A,30.09,10.0,North,12.7,19.6,N/A,,Unknown,10,2013-03-20 19:55:00
3:15 PM,-9999,-9999,N/A,30.08,10.0,North,12.7,20.7,N/A,,Unknown,10,2013-03-20 20:15:00
3:35 PM,-9999,-9999,N/A,30.07,10.0,NNE,13.8,21.9,N/A,,Unknown,30,2013-03-20 20:35:00
3:55 PM,-9999,-9999,N/A,30.07,10.0,NNE,13.8,21.9,N/A,,Unknown,30,2013-03-20 20:55:00
4:15 PM,-9999,-9999,N/A,30.06,10.0,NNE,13.8,20.7,N/A,,Unknown,20,2013-03-20 21:15:00
4:35 PM,-9999,-9999,N/A,30.05,10.0,NE,12.7,18.4,N/A,,Unknown,40,2013-03-20 21:35:00
4:55 PM,-9999,-9999,N/A,30.05,10.0,NNE,11.5,19.6,N/A,,Unknown,20,2013-03-20 21:55:00
5:15 PM,-9999,-9999,N/A,30.05,10.0,North,10.4,-,N/A,,Clear,10,2013-03-20 22:15:00
5:35 PM,-9999,-9999,N/A,30.05,10.0,North,10.4,16.1,N/A,,Clear,10,2013-03-20 22:35:00
6:15 PM,-9999,-9999,N/A,30.05,10.0,NNE,8.1,-,N/A,,Clear,20,2013-03-20 23:15:00
6:35 PM,-9999,-9999,N/A,30.05,10.0,North,9.2,-,N/A,,Clear,10,2013-03-20 23:35:00
6:55 PM,60.3,-11.4,5,30.05,10.0,North,5.8,-,N/A,,Clear,360,2013-03-20 23:55:00
7:15 PM,58.3,-3.6,8,30.06,10.0,North,3.5,-,N/A,,Clear,350,2013-03-21 00:15:00
7:35 PM,54.5,18.7,25,30.06,10.0,NNW,4.6,-,N/A,,Clear,340,2013-03-21 00:35:00
7:55 PM,50.5,26.4,39,30.07,10.0,NNW,3.5,-,N/A,,Clear,340,2013-03-21 00:55:00
8:15 PM,49.5,26.1,40,30.07,10.0,NNE,3.5,-,N/A,,Clear,20,2013-03-21 01:15:00
8:35 PM,47.8,27.0,44,30.07,10.0,North,3.5,-,N/A,,Scattered Clouds,10,2013-03-21 01:35:00
8:55 PM,46.4,26.8,46,30.07,10.0,North,4.6,-,N/A,,Scattered Clouds,10,2013-03-21 01:55:00
9:15 PM,45.9,26.2,46,30.07,10.0,NNW,3.5,-,N/A,,Unknown,340,2013-03-21 02:15:00
9:35 PM,44.4,27.1,51,30.07,10.0,North,3.5,-,N/A,,Unknown,10,2013-03-21 02:35:00
9:55 PM,44.6,27.3,51,30.08,10.0,North,3.5,-,N/A,,Unknown,360,2013-03-21 02:55:00
10:15 PM,43.2,25.0,49,30.08,10.0,North,3.5,-,N/A,,Unknown,360,2013-03-21 03:15:00
10:35 PM,43.5,22.1,43,30.09,10.0,North,4.6,-,N/A,,Unknown,360,2013-03-21 03:35:00
10:55 PM,42.6,24.4,49,30.09,10.0,North,5.8,-,N/A,,Unknown,360,2013-03-21 03:55:00
11:15 PM,42.3,22.5,45,30.09,10.0,North,4.6,-,N/A,,Unknown,360,2013-03-21 04:15:00
11:35 PM,41.7,22.3,46,30.09,10.0,NNW,4.6,-,N/A,,Unknown,340,2013-03-21 04:35:00
11:55 PM,42.6,22.3,45,30.09,10.0,Calm,Calm,-,N/A,,Unknown,0,2013-03-21 04:55:00